| time (UTC) | temp C | wind direction | speed KPH | gust KPH | rain 1hr cm | rain 24hr cm | rain mn cm | humidity % | barometer mb |
| 20260504203003 | 28 | 194 | 9.7 | 27.4 | 0.00 | 0.00 | 0.00 | 37 | 1013.4 |
| 20260504202503 | 28 | 204 | 11.3 | 25.7 | 0.00 | 0.00 | 0.00 | 34 | 1013.4 |
| 20260504202003 | 28 | 213 | 11.3 | 25.7 | 0.00 | 0.00 | 0.00 | 36 | 1013.4 |
| 20260504201503 | 28 | 204 | 11.3 | 25.7 | 0.00 | 0.00 | 0.00 | 36 | 1013.5 |
| 20260504201003 | 28 | 202 | 9.7 | 25.7 | 0.00 | 0.00 | 0.00 | 38 | 1013.4 |
| 20260504200503 | 28 | 197 | 6.4 | 20.9 | 0.00 | 0.00 | 0.00 | 39 | 1013.6 |
| 20260504200004 | 28 | 172 | 4.8 | 14.5 | 0.00 | 0.00 | 0.00 | 39 | 1013.8 |
| 20260504195503 | 28 | 175 | 6.4 | 16.1 | 0.00 | 0.00 | 0.00 | 39 | 1013.9 |
| 20260504195003 | 27 | 187 | 6.4 | 27.4 | 0.00 | 0.00 | 0.00 | 37 | 1013.9 |
| 20260504194503 | 27 | 211 | 9.7 | 27.4 | 0.00 | 0.00 | 0.00 | 39 | 1014.0 |
| 20260504194024 | 27 | 213 | 9.7 | 19.3 | 0.00 | 0.00 | 0.00 | 38 | 1014.1 |
| 20260504193503 | 27 | 200 | 9.7 | 20.9 | 0.00 | 0.00 | 0.00 | 37 | 1014.2 |
| 20260504193024 | 27 | 196 | 9.7 | 25.7 | 0.00 | 0.00 | 0.00 | 39 | 1014.3 |
| 20260504192503 | 27 | 205 | 11.3 | 32.2 | 0.00 | 0.00 | 0.00 | 37 | 1014.4 |
| 20260504192003 | 27 | 213 | 11.3 | 32.2 | 0.00 | 0.00 | 0.00 | 38 | 1014.4 |
| 20260504191503 | 27 | 214 | 11.3 | 29.0 | 0.00 | 0.00 | 0.00 | 39 | 1014.5 |
| 20260504191024 | 27 | 211 | 9.7 | 29.0 | 0.00 | 0.00 | 0.00 | 38 | 1014.6 |
| 20260504190524 | 27 | 204 | 9.7 | 22.5 | 0.00 | 0.00 | 0.00 | 38 | 1014.7 |
| 20260504190004 | 27 | 219 | 9.7 | 22.5 | 0.00 | 0.00 | 0.00 | 38 | 1014.6 |
| 20260504185524 | 27 | 221 | 11.3 | 24.1 | 0.00 | 0.00 | 0.00 | 39 | 1014.9 |
| 20260504185003 | 27 | 202 | 11.3 | 25.7 | 0.00 | 0.00 | 0.00 | 39 | 1015.0 |
| 20260504184503 | 27 | 204 | 11.3 | 25.7 | 0.00 | 0.00 | 0.00 | 40 | 1015.0 |
| 20260504184003 | 27 | 212 | 11.3 | 25.7 | 0.00 | 0.00 | 0.00 | 39 | 1015.0 |
| 20260504183503 | 27 | 201 | 11.3 | 27.4 | 0.00 | 0.00 | 0.00 | 39 | 1015.0 |
| 20260504183003 | 27 | 204 | 11.3 | 27.4 | 0.00 | 0.00 | 0.00 | 39 | 1015.0 |
| 20260504182503 | 26 | 211 | 14.5 | 35.4 | 0.00 | 0.00 | 0.00 | 39 | 1015.0 |
| 20260504182003 | 26 | 211 | 14.5 | 35.4 | 0.00 | 0.00 | 0.00 | 39 | 1015.0 |
| 20260504181503 | 26 | 208 | 9.7 | 27.4 | 0.00 | 0.00 | 0.00 | 41 | 1015.1 |
| 20260504181003 | 26 | 206 | 9.7 | 27.4 | 0.00 | 0.00 | 0.00 | 40 | 1015.3 |
| 20260504180503 | 26 | 193 | 8.0 | 20.9 | 0.00 | 0.00 | 0.00 | 39 | 1015.2 |
| 20260504180003 | 26 | 196 | 6.4 | 19.3 | 0.00 | 0.00 | 0.00 | 40 | 1015.3 |
| 20260504175503 | 26 | 230 | 9.7 | 22.5 | 0.00 | 0.00 | 0.00 | 40 | 1015.4 |
| 20260504175003 | 26 | 224 | 11.3 | 22.5 | 0.00 | 0.00 | 0.00 | 39 | 1015.5 |
| 20260504174503 | 26 | 219 | 9.7 | 22.5 | 0.00 | 0.00 | 0.00 | 41 | 1015.5 |
| 20260504174003 | 26 | 206 | 11.3 | 24.1 | 0.00 | 0.00 | 0.00 | 40 | 1015.6 |
| 20260504173503 | 26 | 206 | 9.7 | 25.7 | 0.00 | 0.00 | 0.00 | 41 | 1015.7 |
| 20260504173003 | 26 | 222 | 9.7 | 25.7 | 0.00 | 0.00 | 0.00 | 41 | 1015.9 |
| 20260504172503 | 26 | 217 | 14.5 | 33.8 | 0.00 | 0.00 | 0.00 | 41 | 1015.6 |
| 20260504172003 | 26 | 208 | 14.5 | 33.8 | 0.00 | 0.00 | 0.00 | 39 | 1016.0 |
| 20260504171524 | 26 | 205 | 11.3 | 27.4 | 0.00 | 0.00 | 0.00 | 41 | 1016.0 |
| 20260504171024 | 26 | 223 | 11.3 | 27.4 | 0.00 | 0.00 | 0.00 | 40 | 1016.0 |
| 20260504170524 | 26 | 221 | 9.7 | 30.6 | 0.00 | 0.00 | 0.00 | 38 | 1016.0 |
| 20260504151003 | 22 | 217 | 9.7 | 24.1 | 0.00 | 0.00 | 0.00 | 54 | 1016.5 |
| 20260504150524 | 22 | 222 | 9.7 | 24.1 | 0.00 | 0.00 | 0.00 | 56 | 1016.5 |
| 20260504141003 | 17 | 229 | 3.2 | 14.5 | 0.00 | 0.00 | 0.00 | 73 | 1017.0 |
| 20260504140503 | 17 | 224 | 3.2 | 14.5 | 0.00 | 0.00 | 0.00 | 74 | 1017.0 |
| 20260504130524 | 14 | 195 | 1.6 | 8.0 | 0.00 | 0.00 | 0.00 | 81 | 1016.9 |
| 20260504110503 | 14 | 234 | 1.6 | 4.8 | 0.00 | 0.00 | 0.00 | 75 | 1016.5 |
| 20260504100524 | 15 | 222 | 3.2 | 11.3 | 0.00 | 0.00 | 0.00 | 75 | 1016.4 |
| 20260504082003 | 14 | 215 | 3.2 | 11.3 | 0.00 | 0.00 | 0.00 | 79 | 1016.4 |
| 20260504081503 | 14 | 227 | 3.2 | 9.7 | 0.00 | 0.00 | 0.00 | 79 | 1016.5 |
| 20260504081003 | 14 | 222 | 3.2 | 9.7 | 0.00 | 0.00 | 0.00 | 79 | 1016.5 |
| 20260504080503 | 14 | 216 | 3.2 | 9.7 | 0.00 | 0.00 | 0.00 | 80 | 1016.5 |
| 20260504050503 | 15 | 0 | 0.0 | 0.0 | 0.00 | 0.00 | 0.00 | 77 | 1017.6 |
| 20260504050004 | 15 | 0 | 0.0 | 0.0 | 0.00 | 0.00 | 0.00 | 77 | 1017.6 |
| 20260504045503 | 15 | 0 | 0.0 | 0.0 | 0.00 | 0.00 | 0.00 | 77 | 1017.6 |
| 20260504045003 | 15 | 221 | 0.0 | 1.6 | 0.00 | 0.00 | 0.00 | 77 | 1017.6 |
| 20260504044503 | 15 | 221 | 0.0 | 1.6 | 0.00 | 0.00 | 0.00 | 76 | 1017.6 |
| 20260504044003 | 15 | 221 | 0.0 | 1.6 | 0.00 | 0.00 | 0.00 | 76 | 1017.6 |
| 20260504043503 | 15 | 0 | 0.0 | 0.0 | 0.00 | 0.00 | 0.00 | 75 | 1017.6 |
| 20260504043024 | 15 | 0 | 0.0 | 0.0 | 0.00 | 0.00 | 0.00 | 75 | 1017.6 |
| 20260504042503 | 15 | 221 | 0.0 | 3.2 | 0.00 | 0.00 | 0.00 | 75 | 1017.6 |
| 20260504042003 | 15 | 221 | 0.0 | 3.2 | 0.00 | 0.00 | 0.00 | 74 | 1017.6 |
| 20260504041503 | 15 | 221 | 0.0 | 3.2 | 0.00 | 0.00 | 0.00 | 74 | 1017.6 |
| 20260504041003 | 16 | 221 | 0.0 | 1.6 | 0.00 | 0.00 | 0.00 | 74 | 1017.6 |
| 20260504040503 | 16 | 221 | 0.0 | 1.6 | 0.00 | 0.00 | 0.00 | 74 | 1017.6 |
| 20260504040003 | 16 | 0 | 0.0 | 0.0 | 0.00 | 0.00 | 0.00 | 73 | 1017.7 |
| 20260504035503 | 16 | 0 | 0.0 | 0.0 | 0.00 | 0.00 | 0.00 | 73 | 1017.7 |
| 20260504035003 | 16 | 0 | 0.0 | 0.0 | 0.00 | 0.00 | 0.00 | 73 | 1017.7 |
| 20260504034503 | 16 | 0 | 0.0 | 0.0 | 0.00 | 0.00 | 0.00 | 73 | 1017.7 |
| 20260504034003 | 16 | 0 | 0.0 | 0.0 | 0.00 | 0.00 | 0.00 | 72 | 1017.7 |
| 20260504033504 | 16 | 0 | 0.0 | 0.0 | 0.00 | 0.00 | 0.00 | 72 | 1017.6 |
| 20260504033003 | 16 | 0 | 0.0 | 0.0 | 0.00 | 0.00 | 0.00 | 72 | 1017.6 |
| 20260504032503 | 16 | 0 | 0.0 | 0.0 | 0.00 | 0.00 | 0.00 | 71 | 1017.6 |
| 20260504032003 | 17 | 221 | 0.0 | 1.6 | 0.00 | 0.00 | 0.00 | 71 | 1017.7 |
| 20260504031503 | 17 | 221 | 0.0 | 1.6 | 0.00 | 0.00 | 0.00 | 71 | 1017.7 |
| 20260504031003 | 17 | 221 | 0.0 | 1.6 | 0.00 | 0.00 | 0.00 | 71 | 1017.7 |
| 20260504030503 | 17 | 0 | 0.0 | 0.0 | 0.00 | 0.00 | 0.00 | 70 | 1017.7 |
| 20260504030003 | 17 | 0 | 0.0 | 0.0 | 0.00 | 0.00 | 0.00 | 70 | 1017.7 |
| 20260504025524 | 17 | 221 | 0.0 | 1.6 | 0.00 | 0.00 | 0.00 | 70 | 1017.7 |
| 20260504025003 | 17 | 221 | 0.0 | 1.6 | 0.00 | 0.00 | 0.00 | 69 | 1017.6 |
| 20260504024503 | 17 | 221 | 0.0 | 1.6 | 0.00 | 0.00 | 0.00 | 68 | 1017.6 |
| 20260504024003 | 18 | 221 | 0.0 | 1.6 | 0.00 | 0.00 | 0.00 | 67 | 1017.6 |
| 20260504023503 | 18 | 221 | 0.0 | 1.6 | 0.00 | 0.00 | 0.00 | 67 | 1017.6 |
| 20260504023003 | 18 | 0 | 0.0 | 0.0 | 0.00 | 0.00 | 0.00 | 66 | 1017.6 |
| 20260504022503 | 18 | 0 | 0.0 | 0.0 | 0.00 | 0.00 | 0.00 | 66 | 1017.5 |
| 20260504022003 | 18 | 0 | 0.0 | 0.0 | 0.00 | 0.00 | 0.00 | 65 | 1017.5 |
| 20260504021503 | 18 | 0 | 0.0 | 0.0 | 0.00 | 0.00 | 0.00 | 64 | 1017.5 |
| 20260504021003 | 19 | 0 | 0.0 | 0.0 | 0.00 | 0.00 | 0.00 | 64 | 1017.6 |
| 20260504020503 | 19 | 0 | 0.0 | 0.0 | 0.00 | 0.00 | 0.00 | 64 | 1017.5 |
| 20260504020003 | 20 | 0 | 0.0 | 0.0 | 0.00 | 0.00 | 0.00 | 62 | 1017.4 |
| 20260504015503 | 20 | 0 | 0.0 | 0.0 | 0.00 | 0.00 | 0.00 | 61 | 1017.3 |
| 20260504015003 | 20 | 0 | 0.0 | 0.0 | 0.00 | 0.00 | 0.00 | 61 | 1017.2 |
| 20260504014503 | 20 | 0 | 0.0 | 0.0 | 0.00 | 0.00 | 0.00 | 60 | 1017.1 |
| 20260504014003 | 21 | 0 | 0.0 | 0.0 | 0.00 | 0.00 | 0.00 | 59 | 1017.1 |
| 20260504013503 | 21 | 0 | 0.0 | 0.0 | 0.00 | 0.00 | 0.00 | 57 | 1017.1 |
| 20260504013003 | 21 | 0 | 0.0 | 0.0 | 0.00 | 0.00 | 0.00 | 58 | 1017.1 |
| 20260504012503 | 21 | 0 | 0.0 | 0.0 | 0.00 | 0.00 | 0.00 | 56 | 1017.1 |
| 20260504012003 | 22 | 0 | 0.0 | 0.0 | 0.00 | 0.00 | 0.00 | 55 | 1017.1 |
| 20260504011503 | 22 | 0 | 0.0 | 0.0 | 0.00 | 0.00 | 0.00 | 55 | 1017.0 |
| 20260504011003 | 22 | 0 | 0.0 | 0.0 | 0.00 | 0.00 | 0.00 | 54 | 1017.0 |
| 20260504010503 | 23 | 0 | 0.0 | 0.0 | 0.00 | 0.00 | 0.00 | 53 | 1017.0 |
| 20260504010004 | 23 | 0 | 0.0 | 0.0 | 0.00 | 0.00 | 0.00 | 51 | 1017.0 |
| 20260504005503 | 23 | 0 | 0.0 | 0.0 | 0.00 | 0.00 | 0.00 | 50 | 1016.8 |
| 20260504005004 | 24 | 221 | 0.0 | 1.6 | 0.00 | 0.00 | 0.00 | 50 | 1016.7 |
| 20260504004503 | 24 | 221 | 0.0 | 1.6 | 0.00 | 0.00 | 0.00 | 49 | 1016.7 |
| 20260504004003 | 25 | 221 | 0.0 | 1.6 | 0.00 | 0.00 | 0.00 | 47 | 1016.7 |
| 20260504003503 | 25 | 221 | 0.0 | 1.6 | 0.00 | 0.00 | 0.00 | 44 | 1016.6 |
| 20260504003025 | 25 | 221 | 0.0 | 3.2 | 0.00 | 0.00 | 0.00 | 44 | 1016.6 |
| 20260504002503 | 25 | 220 | 1.6 | 4.8 | 0.00 | 0.00 | 0.00 | 42 | 1016.6 |
| 20260504002024 | 26 | 220 | 1.6 | 4.8 | 0.00 | 0.00 | 0.00 | 41 | 1016.7 |
| 20260504001503 | 26 | 219 | 1.6 | 6.4 | 0.00 | 0.00 | 0.00 | 40 | 1016.7 |
| 20260504001003 | 26 | 225 | 1.6 | 6.4 | 0.00 | 0.00 | 0.00 | 39 | 1016.7 |
| 20260504000503 | 26 | 235 | 1.6 | 6.4 | 0.00 | 0.00 | 0.00 | 39 | 1016.7 |
| 20260504000003 | 27 | 236 | 0.0 | 4.8 | 0.00 | 0.00 | 0.00 | 38 | 1016.7 |
| 20260503235503 | 27 | 237 | 0.0 | 3.2 | 0.00 | 0.00 | 0.00 | 37 | 1016.7 |
| 20260503235003 | 27 | 237 | 1.6 | 4.8 | 0.00 | 0.00 | 0.00 | 36 | 1016.8 |
| 20260503234524 | 27 | 239 | 1.6 | 4.8 | 0.00 | 0.00 | 0.00 | 36 | 1016.9 |
| 20260503234003 | 27 | 242 | 1.6 | 9.7 | 0.00 | 0.00 | 0.00 | 35 | 1017.0 |
| 20260503233524 | 27 | 252 | 3.2 | 9.7 | 0.00 | 0.00 | 0.00 | 34 | 1017.0 |
| 20260503233003 | 27 | 250 | 3.2 | 8.0 | 0.00 | 0.00 | 0.00 | 35 | 1017.0 |
| 20260503232503 | 27 | 233 | 4.8 | 9.7 | 0.00 | 0.00 | 0.00 | 35 | 1017.1 |
| 20260503232003 | 28 | 210 | 3.2 | 9.7 | 0.00 | 0.00 | 0.00 | 35 | 1017.1 |
| 20260503231504 | 28 | 144 | 0.0 | 4.8 | 0.00 | 0.00 | 0.00 | 35 | 1017.1 |
| 20260503231003 | 28 | 112 | 1.6 | 3.2 | 0.00 | 0.00 | 0.00 | 35 | 1017.1 |
| 20260503230503 | 28 | 59 | 1.6 | 4.8 | 0.00 | 0.00 | 0.00 | 36 | 1017.1 |
| 20260503230031 | 28 | 4 | 1.6 | 4.8 | 0.00 | 0.00 | 0.00 | 35 | 1017.1 |
| 20260503225503 | 28 | 324 | 1.6 | 8.0 | 0.00 | 0.00 | 0.00 | 34 | 1017.1 |
| 20260503225003 | 28 | 322 | 3.2 | 8.0 | 0.00 | 0.00 | 0.00 | 34 | 1017.1 |
| 20260503224503 | 28 | 324 | 3.2 | 8.0 | 0.00 | 0.00 | 0.00 | 34 | 1017.1 |
| 20260503224003 | 28 | 288 | 3.2 | 9.7 | 0.00 | 0.00 | 0.00 | 34 | 1017.1 |
| 20260503223503 | 28 | 260 | 3.2 | 9.7 | 0.00 | 0.00 | 0.00 | 32 | 1017.1 |
| 20260503223024 | 28 | 249 | 1.6 | 9.7 | 0.00 | 0.00 | 0.00 | 33 | 1017.1 |
| 20260503222503 | 28 | 235 | 3.2 | 8.0 | 0.00 | 0.00 | 0.00 | 33 | 1017.1 |
| 20260503222003 | 28 | 263 | 4.8 | 9.7 | 0.00 | 0.00 | 0.00 | 33 | 1017.2 |
| 20260503221503 | 28 | 274 | 3.2 | 9.7 | 0.00 | 0.00 | 0.00 | 33 | 1017.3 |
| 20260503221003 | 28 | 248 | 3.2 | 11.3 | 0.00 | 0.00 | 0.00 | 33 | 1017.4 |
| 20260503220525 | 28 | 242 | 4.8 | 14.5 | 0.00 | 0.00 | 0.00 | 33 | 1017.4 |
| 20260503220003 | 28 | 286 | 4.8 | 14.5 | 0.00 | 0.00 | 0.00 | 32 | 1017.5 |
| 20260503215503 | 28 | 340 | 3.2 | 8.0 | 0.00 | 0.00 | 0.00 | 33 | 1017.5 |
| 20260503215003 | 28 | 353 | 3.2 | 11.3 | 0.00 | 0.00 | 0.00 | 33 | 1017.6 |
| 20260503214503 | 28 | 345 | 3.2 | 11.3 | 0.00 | 0.00 | 0.00 | 34 | 1017.6 |
| 20260503214024 | 28 | 276 | 3.2 | 6.4 | 0.00 | 0.00 | 0.00 | 33 | 1017.7 |
| 20260503213503 | 28 | 216 | 3.2 | 9.7 | 0.00 | 0.00 | 0.00 | 34 | 1017.7 |
| 20260503213025 | 28 | 221 | 3.2 | 9.7 | 0.00 | 0.00 | 0.00 | 35 | 1017.8 |
| 20260503212503 | 28 | 253 | 4.8 | 14.5 | 0.00 | 0.00 | 0.00 | 33 | 1018.1 |
| 20260503212003 | 28 | 269 | 6.4 | 14.5 | 0.00 | 0.00 | 0.00 | 34 | 1018.1 |
| 20260503211503 | 28 | 331 | 6.4 | 14.5 | 0.00 | 0.00 | 0.00 | 35 | 1018.2 |
| 20260503211003 | 28 | 332 | 6.4 | 11.3 | 0.00 | 0.00 | 0.00 | 34 | 1018.2 |
| 20260503210503 | 28 | 314 | 4.8 | 11.3 | 0.00 | 0.00 | 0.00 | 35 | 1018.3 |
| 20260503210003 | 28 | 271 | 6.4 | 11.3 | 0.00 | 0.00 | 0.00 | 34 | 1018.5 |
| 20260503205503 | 28 | 286 | 6.4 | 14.5 | 0.00 | 0.00 | 0.00 | 34 | 1018.6 |
| 20260503205003 | 28 | 327 | 6.4 | 17.7 | 0.00 | 0.00 | 0.00 | 34 | 1018.6 |
| 20260503204503 | 28 | 326 | 4.8 | 17.7 | 0.00 | 0.00 | 0.00 | 34 | 1018.6 |
| 20260503204003 | 28 | 335 | 3.2 | 11.3 | 0.00 | 0.00 | 0.00 | 35 | 1018.7 |
| 20260503203503 | 28 | 297 | 3.2 | 11.3 | 0.00 | 0.00 | 0.00 | 37 | 1018.7 |